Starlink 31744

operational
NORAD ID: 59494 Int'l Des: 2024-071 Owner: SPXS Country: US Constellation: starlink
LEOCIRCULAR

About Starlink 31744

Description loading...

Live Position

Loading 3D Globe...

Upcoming Passes

Altitude History

Altitude vs Time

uPlot chart will show altitude changes over time

Two-Line Element Set

1 59494U 24071L 26035.71290527 -.00000001 00000-0 94821-5 0 9995
2 59494 43.0000 173.6420 0001402 274.4018 85.6673 15.27572238103074
Epoch: Feb 4, 2026 • Age: 12 hours

Current Status

Altitude 492.9 km
Velocity 7.62 km/s
Sub-Earth Point -36.70°S, 98.26°W
Launch Date Apr 13, 2024
Age 1.8 years
Type internet

Technical Details

Classification Payload
Mass 730.00 kg
Dry Mass 700.00 kg
Total Mass 730.00 kg
Length 0.30 m
Diameter 4.10 m
Span 29.00 m
Shape Box + pan
Manufacturer SPXS
Bus Type Starlink V2M
Phase Status In Orbit
Owner/State SPXS/US

Large Constellations

Loading constellations...